Regional Weather Roundup
Issued by NWS Albany, NY

Home | Current Version | Previous Version | Text Only | Print | Product List | Glossary On
Versions: 1 2 3 4 5 6 7 8 9 10 11 12 13 14 15 16 17 18 19 20 21 22 23 24 25 26 27
000
ASUS41 KALY 240610
RWRALY

NEW YORK STATE HOURLY WEATHER ROUNDUP
NATIONAL WEATHER SERVICE ALBANY NY
100 AM EST FRI NOV 24 2017

NOTE: "FAIR" INDICATES FEW OR NO CLOUDS BELOW 12,000 FEET WITH NO
SIGNIFICANT WEATHER AND/OR NO OBSTRUCTIONS TO VISIBILITY.

NYZ032-033-038>043-046>054-057>066-NYZ062>081-082-084-240700-
EAST


CITY           SKY/WX    TMP DP  RH WIND       PRES   REMARKS
ALBANY         CLOUDY    33  21  61 S5        29.99S WCI  29
GLENS FALLS    CLOUDY    32  24  72 S6        29.96F WCI  26
POUGHKEEPSIE   CLEAR     26  21  81 CALM      30.00F
NEWBURGH       CLEAR     30  23  74 CALM      30.01F
MONTGOMERY     CLEAR     28  20  71 CALM      30.00F
WHITE PLAINS   CLEAR     31  21  66 W5        30.00F WCI  26
ISLIP          CLEAR     30  23  75 W3        30.03R
NEW YORK CITY  PTCLDY    39  21  48 W8        30.04S WCI  33
CENTRAL PARK   CLEAR     37  21  52 W5        30.05F WCI  33
$$

NYZ005>009-017-018-044>046-055-056-240700-
CENTRAL


CITY           SKY/WX    TMP DP  RH WIND       PRES   REMARKS
FULTON         CLOUDY    37  25  61 SW6       29.95F WCI  32
SYRACUSE       CLOUDY    37  23  56 SW9       29.96S WCI  30
ROME           CLOUDY    36  26  67 CALM      29.98S
ELMIRA         CLOUDY    30  26  85 CALM      29.98S
BINGHAMTON     CLOUDY    31  20  63 SW7       29.94F WCI  24
MONTICELLO     CLEAR     26  20  77 SW3       29.97F
$$

NYZ026>034-041>043-087-240700-
NORTH


CITY           SKY/WX    TMP DP  RH WIND       PRES   REMARKS
WATERTOWN      CLOUDY    40  31  70 W14       29.91S WCI  32
FORT DRUM      NOT AVBL
OGDENSBURG     CLOUDY    36  31  84 SW7       29.87F WCI  30
MASSENA        CLOUDY    35  33  92 SW13      29.87F WCI  26
SARANAC LAKE   CLOUDY    29  29 100 MISG      29.83F FOG
PLATTSBURGH    CLOUDY    36  27  69 VRB5      29.89F WCI  32
$$

NYZ001>004-010>016-019>021-085-240700-
WEST


CITY           SKY/WX    TMP DP  RH WIND       PRES   REMARKS
NIAGARA FALLS  CLOUDY    41  24  51 W14       29.94F
BUFFALO        CLOUDY    39  29  67 W9        29.94F WCI  33
DUNKIRK        CLOUDY    38  26  62 S10       29.97F WCI  31
JAMESTOWN      CLOUDY    32  23  69 SW7       29.95F WCI  26
WELLSVILLE     CLOUDY    35  20  54 W7        29.95R WCI  29
ROCHESTER      CLOUDY    38  26  62 SW9       29.96R WCI  31
PENN YAN       CLOUDY    37  21  52 SW9       29.96S WCI  30
$$

             KEY
       WCI = WIND CHILL INDEX
       VSB = VISIBILITY
       HX  = HEAT INDEX
$$




USA.gov is the U.S. government's official web portal to all federal, state and local government web resources and services.